Weather History for Westhampton Beach, NY

Change the Weather History Date:

Monday, February 11, 2013

  Actual Average Record
Temperature  
Mean Temperature 33 °F -  
Max Temperature 48 °F 38 °F 57 °F (2009)
Min Temperature 18 °F 20 °F -2 °F (2014)
Degree Days  
Heating Degree Days 32    
Moisture  
Dew Point 38 °F    
Average Humidity 93    
Maximum Humidity 100    
Minimum Humidity 84    
Precipitation  
Precipitation 0.56 in - - ()
Sea Level Pressure  
Sea Level Pressure 29.91 in    
Wind  
Wind Speed 5 mph (SSW)    
Max Wind Speed 14 mph    
Max Gust Speed 25 mph    
Visibility 4 miles    
Events Fog , Rain    
Averages and records for this station are not official NWS values.
T = Trace of Precipitation, MM = Missing Value Source: NWS Daily Summary

Daily Weather History Graph

Daily Weather History Graph

Search for Another Location

Airport:

Trip Planner

Search our weather history database for the weather conditions in past years. The results will help you decide how hot, cold, wet, or windy it might be!

Date:

Astronomy

Feb. 11, 2013 Rise Set
Actual Time 6:49 AM EST 5:20 PM EST
Civil Twilight 6:21 AM EST 5:48 PM EST
Nautical Twilight 5:48 AM EST 6:21 PM EST
Astronomical Twilight 5:16 AM EST 6:53 PM EST
Moon 7:11 AM EST (2/11) 7:15 PM EST (2/11)
Length of Visible Light 11h 27m
Length of Day
10h 31m
Waxing Crescent, 3% of the Moon is Illuminated
Feb 11
Waxing Crescent
Feb 17
First Quarter
Feb 25
Full
Mar 4
Last Quarter
Mar 11
New

Hourly Weather History & Observations

Time (EST) Temp. Windchill Dew Point Humidity Pressure Visibility Wind Dir Wind Speed Gust Speed Precip Events Conditions
12:53 AM 18.0 °F - 14.0 °F 84% 30.35 in 10.0 mi Calm Calm - N/A   Clear
1:53 AM 19.0 °F - 15.1 °F 85% 30.33 in 10.0 mi Calm Calm - N/A   Clear
2:53 AM 21.9 °F - 18.0 °F 85% 30.30 in 10.0 mi Calm Calm - N/A   Clear
3:53 AM 24.1 °F 19.7 °F 19.9 °F 84% 30.26 in 10.0 mi SE 3.5 mph - N/A   Partly Cloudy
4:53 AM 27.0 °F 21.6 °F 23.0 °F 85% 30.25 in 10.0 mi SSE 4.6 mph - N/A   Mostly Cloudy
5:53 AM 30.9 °F - 28.0 °F 89% 30.22 in 10.0 mi Calm Calm - N/A   Overcast
6:53 AM 32.0 °F 27.5 °F 30.0 °F 92% 30.19 in 10.0 mi ESE 4.6 mph - N/A Rain Light Rain
7:53 AM 39.9 °F 35.8 °F 37.0 °F 89% 30.16 in 5.0 mi SSE 5.8 mph - 0.04 in Rain Light Rain
8:35 AM 39.2 °F 34.2 °F 37.4 °F 93% 30.11 in 7.0 mi SSE 6.9 mph - 0.03 in Rain Light Rain
8:53 AM 42.1 °F 37.1 °F 39.0 °F 89% 30.09 in 5.0 mi SE 8.1 mph - 0.03 in Rain Light Rain
9:44 AM 44.6 °F 38.4 °F 42.8 °F 93% 30.04 in 5.0 mi SSE 12.7 mph 19.6 mph 0.04 in Rain Light Rain
9:53 AM 44.1 °F 39.0 °F 42.1 °F 93% 30.04 in 3.0 mi SSE 9.2 mph - 0.06 in Rain Light Rain
10:02 AM 44.6 °F 39.7 °F 42.8 °F 93% 30.03 in 3.0 mi SSE 9.2 mph 18.4 mph 0.01 in Rain Rain
10:06 AM 44.6 °F 38.8 °F 42.8 °F 93% 30.03 in 2.5 mi SSE 11.5 mph 19.6 mph 0.02 in Rain Rain
10:22 AM 44.6 °F 38.4 °F 42.8 °F 93% 30.01 in 1.8 mi SSE 12.7 mph 19.6 mph 0.06 in Rain Rain
10:53 AM 46.9 °F - 45.0 °F 93% 29.98 in 1.5 mi South 12.7 mph 23.0 mph 0.11 in Rain Light Rain
11:53 AM 48.0 °F - 46.0 °F 93% 29.94 in 2.0 mi South 13.8 mph 25.3 mph 0.10 in Rain Light Rain
12:10 PM 46.4 °F 40.4 °F 46.4 °F 100% 29.93 in 1.5 mi South 13.8 mph 21.9 mph 0.02 in Rain Light Rain
12:53 PM 46.9 °F - 46.0 °F 97% 29.90 in 1.2 mi SSW 10.4 mph 21.9 mph 0.11 in Rain Rain
1:05 PM 44.6 °F 38.8 °F 42.8 °F 93% 29.89 in 0.2 mi WSW 11.5 mph 18.4 mph 0.01 in Fog , Rain Light Rain
1:20 PM 44.6 °F 40.2 °F 44.6 °F 100% 29.88 in 0.8 mi SW 8.1 mph - 0.06 in Rain Heavy Rain
1:28 PM 46.4 °F 42.4 °F 44.6 °F 93% 29.87 in 1.2 mi SW 8.1 mph - 0.08 in Rain Light Rain
1:53 PM 46.0 °F 41.9 °F 45.0 °F 96% 29.85 in 0.5 mi SW 8.1 mph - 0.08 in Fog , Rain Light Rain
2:06 PM 44.6 °F 41.4 °F 44.6 °F 100% 29.84 in 0.2 mi SW 5.8 mph - 0.01 in Fog Fog
2:53 PM 45.0 °F 41.8 °F 44.1 °F 97% 29.82 in 0.2 mi SW 5.8 mph - 0.02 in Fog Fog
3:53 PM 44.1 °F 39.5 °F 43.0 °F 96% 29.79 in 0.2 mi SW 8.1 mph - 0.01 in Fog Fog
4:53 PM 44.1 °F 40.8 °F 42.1 °F 93% 29.75 in 0.2 mi SW 5.8 mph - 0.00 in Fog Fog
5:53 PM 43.0 °F 39.5 °F 42.1 °F 97% 29.73 in 0.2 mi SSW 5.8 mph - 0.00 in Fog Fog
6:53 PM 39.9 °F - 39.9 °F 100% 29.72 in 0.2 mi Calm Calm - N/A Fog Fog
7:53 PM 37.9 °F - 37.9 °F 100% 29.70 in 0.2 mi Calm Calm - N/A Fog Fog
8:53 PM 39.9 °F - 37.9 °F 93% 29.68 in 0.2 mi Calm Calm - N/A Fog Fog
9:53 PM 39.0 °F 35.7 °F 37.0 °F 93% 29.68 in 0.2 mi West 4.6 mph - N/A Fog Fog
10:01 PM 41.0 °F 37.1 °F 39.2 °F 93% 29.68 in 0.2 mi West 5.8 mph - N/A Fog Fog
10:49 PM 42.8 °F 38.0 °F 41.0 °F 93% 29.70 in 0.5 mi NW 8.1 mph - N/A Fog Fog
10:53 PM 42.1 °F 36.1 °F 41.0 °F 96% 29.70 in 1.0 mi NW 10.4 mph - N/A   Overcast
11:00 PM 42.8 °F 38.6 °F 39.2 °F 87% 29.69 in 3.0 mi NW 6.9 mph - N/A   Overcast
11:12 PM 42.8 °F 41.1 °F 39.2 °F 87% 29.68 in 6.0 mi WNW 3.5 mph - N/A   Overcast
11:19 PM 39.2 °F - 39.2 °F 100% 29.68 in 1.8 mi Calm Calm - N/A   Mostly Cloudy
11:30 PM 39.2 °F 35.9 °F 39.2 °F 100% 29.69 in 0.8 mi NW 4.6 mph - N/A   Mostly Cloudy
11:39 PM 39.2 °F 35.9 °F 39.2 °F 100% 29.69 in 2.5 mi West 4.6 mph - N/A   Scattered Clouds
11:46 PM 39.2 °F 35.9 °F 39.2 °F 100% 29.69 in 10.0 mi West 4.6 mph - N/A   Partly Cloudy
11:53 PM 39.0 °F 34.0 °F 37.9 °F 96% 29.70 in 9.0 mi West 6.9 mph - N/A   Clear